BEIDOU-2 IGSO-1 (C06) 1 36828U 10036A 26233.75814490 -.00000137 00000+0 00000+0 0 9991 2 36828 54.3073 162.3689 0058187 224.3483 321.2966 1.00253816058751 BEIDOU-2 G4 (C04) 1 37210U 10057A 26255.31413895 -.00000125 00000+0 00000+0 0 9997 2 37210 3.8586 68.3272 0007990 180.0187 16.0579 1.00270634058164 BEIDOU-2 IGSO-2 (C07) 1 37256U 10068A 26253.99100328 -.00000181 00000+0 00000+0 0 9997 2 37256 47.3940 270.7552 0057250 216.2433 325.9173 1.00254283057658 BEIDOU-2 IGSO-3 (C08) 1 37384U 11013A 26254.72041399 -.00000177 00000+0 00000+0 0 9999 2 37384 62.5388 39.3441 0034682 183.6392 132.9930 1.00292639056525 BEIDOU-2 IGSO-4 (C09) 1 37763U 11038A 26253.81888677 -.00000114 00000+0 00000+0 0 9995 2 37763 54.6025 164.9115 0160322 231.0094 343.0930 1.00268280055504 BEIDOU-2 IGSO-5 (C10) 1 37948U 11073A 26253.79533383 -.00000160 00000+0 00000+0 0 9998 2 37948 47.5267 270.4734 0116652 224.1508 237.2700 1.00279182053991 BEIDOU-2 G5 (C05) 1 38091U 12008A 26255.16330112 .00000044 00000+0 00000+0 0 9995 2 38091 3.7859 69.0679 0006839 239.5091 160.1264 1.00267637053243 BEIDOU-2 M3 (C11) 1 38250U 12018A 26250.34327845 -.00000028 00000+0 00000+0 0 9990 2 38250 55.6835 302.1014 0022906 272.4999 87.3124 1.86229821097475 BEIDOU-2 M4 (C12) 1 38251U 12018B 26254.03441668 -.00000049 00000+0 00000+0 0 9994 2 38251 55.5803 301.1830 0014225 272.3678 87.5423 1.86229392097548 BEIDOU-2 M6 (C14) 1 38775U 12050B 26254.81753932 -.00000038 00000+0 00000+0 0 9995 2 38775 56.6242 60.0343 0011002 4.3540 355.6744 1.86230878094924 BEIDOU-2 G6 (C02) 1 38953U 12059A 26255.09708750 -.00000188 00000+0 00000+0 0 9997 2 38953 4.6364 72.5336 0006848 323.5617 73.9929 1.00270221050786 BEIDOU-3S IGSO-1S (C31) 1 40549U 15019A 26253.70909148 -.00000162 00000+0 00000+0 0 9992 2 40549 49.0313 294.4241 0038711 200.3707 205.9134 1.00288273041931 BEIDOU-3S M2S (C58) 1 40748U 15037A 26254.23534491 -.00000049 00000+0 00000+0 0 9991 2 40748 54.7915 299.0777 0011625 259.4932 100.4462 1.86231926075722 BEIDOU-3S M1S (C57) 1 40749U 15037B 26252.28469299 -.00000034 00000+0 00000+0 0 9992 2 40749 54.7897 299.1308 0001810 48.3830 311.7068 1.86254857075693 BEIDOU-3S IGSO-2S (C56) 1 40938U 15053A 26253.96073912 -.00000124 00000+0 00000+0 0 9999 2 40938 49.0947 257.7528 0065681 192.4722 341.2961 1.00285074040218 BEIDOU-2 IGSO-6 (C13) 1 41434U 16021A 26254.86364124 -.00000162 00000+0 00000+0 0 9997 2 41434 60.3547 37.1827 0061604 228.2411 132.6997 1.00282549038355 BEIDOU-2 G7 (C03) 1 41586U 16037A 26255.31609514 -.00000367 00000+0 00000+0 0 9995 2 41586 1.9316 69.6659 0005166 352.1556 153.8063 1.00275942007768 BEIDOU-3 M1 (C19) 1 43001U 17069A 26252.97199420 -.00000020 00000+0 00000+0 0 9990 2 43001 56.7701 60.2963 0007331 324.1360 35.8435 1.86231101060181 BEIDOU-3 M2 (C20) 1 43002U 17069B 26255.05877027 -.00000039 00000+0 00000+0 0 9999 2 43002 56.7708 60.2633 0006279 3.9690 356.0541 1.86230429060213 BEIDOU-3 M7 (C27) 1 43107U 18003A 26254.80116058 -.00000055 00000+0 00000+0 0 9994 2 43107 54.2473 299.2879 0003210 105.5565 254.5469 1.86227896058963 BEIDOU-3 M8 (C28) 1 43108U 18003B 26254.20763197 -.00000051 00000+0 00000+0 0 9997 2 43108 54.2406 299.2900 0004201 261.2655 98.7568 1.86230841058968 BEIDOU-3 M4 (C22) 1 43207U 18018A 26254.65115365 -.00000036 00000+0 00000+0 0 9993 2 43207 56.7296 60.3017 0006048 42.6888 317.3783 1.86231004058352 BEIDOU-3 M3 (C21) 1 43208U 18018B 26254.71766352 -.00000036 00000+0 00000+0 0 9999 2 43208 56.7302 60.3038 0005407 347.6353 12.3712 1.86230771058351 BEIDOU-3 M9 (C29) 1 43245U 18029A 26254.39917156 -.00000049 00000+0 00000+0 0 9990 2 43245 54.1130 296.9256 0001717 233.1525 126.8995 1.86228302057509 BEIDOU-3 M10 (C30) 1 43246U 18029B 26254.33309235 -.00000048 00000+0 00000+0 0 9997 2 43246 54.1108 296.9552 0002642 17.4348 342.6422 1.86229002057486 BEIDOU-2 IGSO-7 (C16) 1 43539U 18057A 26254.54680998 -.00000160 00000+0 00000+0 0 9999 2 43539 55.2130 162.3239 0107981 236.7833 260.8322 1.00277412029992 BEIDOU-3 M5 (C23) 1 43581U 18062A 26254.55697582 -.00000008 00000+0 00000+0 0 9991 2 43581 54.0829 179.3693 0004109 311.4726 48.4906 1.86228716055245 BEIDOU-3 M6 (C24) 1 43582U 18062B 26253.88383300 -.00000015 00000+0 00000+0 0 9995 2 43582 54.0824 179.3813 0006414 28.3297 331.6991 1.86228127055239 BEIDOU-3 M12 (C26) 1 43602U 18067A 26253.82238918 -.00000015 00000+0 00000+0 0 9991 2 43602 54.1788 178.1378 0008684 35.7772 324.2772 1.86227478054711 BEIDOU-3 M11 (C25) 1 43603U 18067B 26255.03162137 -.00000002 00000+0 00000+0 0 9992 2 43603 54.1757 178.0602 0005224 24.7633 335.2664 1.86226940054768 BEIDOU-3 M13 (C32) 1 43622U 18072A 26254.98563345 -.00000040 00000+0 00000+0 0 9990 2 43622 56.7046 59.7997 0004180 330.4364 29.5577 1.86230810054271 BEIDOU-3 M14 (C33) 1 43623U 18072B 26254.85104984 -.00000039 00000+0 00000+0 0 9995 2 43623 56.7062 59.7985 0003864 24.7605 335.2765 1.86230892054261 BEIDOU-3 M16 (C35) 1 43647U 18078A 26253.93131641 -.00000045 00000+0 00000+0 0 9992 2 43647 54.0096 296.9723 0006056 32.3821 327.7243 1.86232315053753 BEIDOU-3 M15 (C34) 1 43648U 18078B 26254.59881058 -.00000050 00000+0 00000+0 0 9996 2 43648 54.0047 296.9488 0002659 38.7743 321.3116 1.86227470053784 BEIDOU-3 G1 (C59) 1 43683U 18085A 26255.31413895 -.00000122 00000+0 00000+0 0 9994 2 43683 2.6093 94.9051 0005960 21.2547 148.3193 1.00271639028935 BEIDOU-3 M17 (C36) 1 43706U 18093A 26254.41820178 -.00000009 00000+0 00000+0 0 9999 2 43706 54.1662 179.3727 0008617 302.8640 187.5989 1.86228307053144 BEIDOU-3 M18 (C37) 1 43707U 18093B 26255.16165384 -.00000002 00000+0 00000+0 0 9997 2 43707 54.1670 179.3395 0007477 338.2296 21.7414 1.86226659053159 BEIDOU-3 IGSO-1 (C38) 1 44204U 19023A 26250.73892373 -.00000201 00000+0 00000+0 0 9998 2 44204 58.8141 36.8058 0027421 223.4639 111.5661 1.00267210008039 BEIDOU-2 G8 (C01) 1 44231U 19027A 26255.32285515 -.00000260 00000+0 00000+0 0 9991 2 44231 1.8738 74.3172 0009050 278.0738 259.7237 1.00272032026950 BEIDOU-3 IGSO-2 (C39) 1 44337U 19035A 26254.45820199 -.00000155 00000+0 00000+0 0 9996 2 44337 55.2503 158.1052 0038653 211.3311 265.7860 1.00273492026530 BEIDOU-3 M24 (C46) 1 44542U 19061A 26253.08125853 -.00000024 00000+0 00000+0 0 9991 2 44542 54.3942 179.8664 0009174 11.0844 348.9243 1.86229234047379 BEIDOU-3 M23 (C45) 1 44543U 19061B 26253.49471433 -.00000020 00000+0 00000+0 0 9991 2 44543 54.3922 179.8209 0006043 0.0624 188.1997 1.86227700047386 BEIDOU-3 IGSO-3 (C40) 1 44709U 19073A 26254.47291843 -.00000166 00000+0 00000+0 0 9993 2 44709 54.6556 279.9570 0046847 198.0806 161.8102 1.00264080025329 BEIDOU-3 M22 (C44) 1 44793U 19078A 26254.53316205 -.00000050 00000+0 00000+0 0 9990 2 44793 53.8546 296.7826 0004840 42.9059 317.1987 1.86227049046257 BEIDOU-3 M21 (C43) 1 44794U 19078B 26254.13590323 -.00000047 00000+0 00000+0 0 9998 2 44794 53.8284 296.7562 0002736 33.9992 326.0864 1.86227553046255 BEIDOU-3 M19 (C41) 1 44864U 19090A 26254.37736057 -.00000034 00000+0 00000+0 0 9998 2 44864 56.6386 59.9456 0015767 292.8904 67.0484 1.86231354045832 BEIDOU-3 M20 (C42) 1 44865U 19090B 26252.09494478 -.00000013 00000+0 00000+0 0 9991 2 44865 56.6383 60.0563 0013054 308.9371 50.3333 1.86231127045775 BEIDOU-3 G2 (C60) 1 45344U 20017A 26255.16737448 -.00000153 00000+0 00000+0 0 9998 2 45344 2.5806 48.3907 0002124 131.9601 311.1309 1.00272263024135 BEIDOU-3 G3 (C61) 1 45807U 20040A 26255.31609514 -.00000367 00000+0 00000+0 0 9994 2 45807 2.6569 67.4129 0002644 281.4958 226.7590 1.00269676022941 BEIDOU-3 G4 (C62) 1 56564U 23066A 26255.32198850 -.00000295 00000+0 00000+0 0 9994 2 56564 0.4400 356.6797 0005257 198.7514 51.8772 1.00271116012263 BEIDOU-3 M28 (C50) 1 58654U 23207A 26255.28642221 -.00000045 00000+0 00000+0 0 9997 2 58654 55.8347 59.3693 0000711 44.9600 315.0622 1.86229677018465 BEIDOU-3 M26 (C48) 1 58655U 23207B 26255.08393648 -.00000043 00000+0 00000+0 0 9990 2 58655 55.8364 59.3628 0000918 252.9433 107.0639 1.86229584018449 BEIDOU-3 M25 (C47) 1 61186U 24168B 26254.36429854 -.00000051 00000+0 00000+0 0 9998 2 61186 54.3933 299.2402 0004522 288.6681 66.5723 1.86230059013389 BEIDOU-3 M27 (C49) 1 61187U 24168C 26254.80535818 -.00000054 00000+0 00000+0 0 9999 2 61187 54.3885 299.2074 0000728 333.0111 92.9908 1.86230254010874